GFSMA_prec_precacc12_123.txt.gz
Total_Precipitation_Accumulation
0.08 0.08 0.04 0.03 0.05 0.01 0.00 0.00 0.00 0.00 0.00 0.00 0.00 0.00 0.00 0.00 0.00 0.00 0.00 0.05 0.06 0.04 0.08 0.13 0.18 0.18 0.10 0.08 0.15 0.47 0.56 0.58 0.42 0.39 0.33 0.27 0.24 0.22 0.13 0.02 0.00 0.00 0.00
0.07 0.06 0.04 0.04 0.06 0.05 0.12 0.04 0.00 0.00 0.00 0.00 0.00 0.00 0.00 0.00 0.00 0.00 0.00 0.02 0.03 0.01 0.02 0.07 0.17 0.16 0.12 0.12 0.08 0.21 0.47 0.51 0.53 0.41 0.24 0.18 0.20 0.23 0.15 0.05 0.00 0.00 0.00
0.14 0.13 0.11 0.05 0.05 0.11 0.27 0.10 0.07 0.05 0.01 0.00 0.00 0.00 0.01 0.02 0.00 0.00 0.00 0.00 0.00 0.00 0.00 0.00 0.07 0.15 0.17 0.17 0.12 0.31 0.77 0.78 0.48 0.41 0.27 0.16 0.19 0.26 0.14 0.04 0.00 0.00 0.00
0.44 0.61 0.49 0.32 0.19 0.43 0.47 0.20 0.15 0.17 0.11 0.05 0.01 0.02 0.03 0.06 0.04 0.02 0.01 0.00 0.00 0.00 0.00 0.00 0.01 0.05 0.11 0.15 0.13 0.19 0.71 0.92 0.82 0.57 0.33 0.13 0.12 0.24 0.15 0.08 0.01 0.00 0.00
0.45 0.47 0.54 0.69 0.73 0.76 0.68 0.65 0.57 0.31 0.20 0.10 0.12 0.09 0.07 0.11 0.09 0.10 0.05 0.03 0.02 0.00 0.00 0.00 0.00 0.01 0.04 0.06 0.16 0.16 0.37 0.99 0.90 0.65 0.54 0.28 0.12 0.26 0.15 0.08 0.02 0.00 0.00
0.06 0.11 0.19 0.36 0.70 0.87 0.95 1.08 1.01 0.69 0.56 0.50 0.50 0.37 0.26 0.23 0.18 0.16 0.11 0.16 0.12 0.07 0.04 0.02 0.01 0.00 0.02 0.03 0.10 0.16 0.16 0.31 0.45 0.62 0.64 0.45 0.21 0.26 0.20 0.12 0.04 0.02 0.00
0.00 0.01 0.01 0.06 0.21 0.25 0.30 0.64 0.91 0.91 0.83 1.15 1.67 1.62 1.00 0.54 0.38 0.27 0.24 0.27 0.25 0.23 0.18 0.08 0.04 0.01 0.00 0.00 0.01 0.12 0.11 0.14 0.19 0.25 0.42 0.49 0.45 0.28 0.20 0.13 0.07 0.02 0.00
0.00 0.00 0.00 0.01 0.02 0.08 0.23 0.28 0.50 0.66 0.64 0.82 1.09 1.13 0.93 0.53 0.33 0.32 0.37 0.38 0.28 0.23 0.15 0.09 0.04 0.01 0.00 0.00 0.00 0.02 0.09 0.14 0.21 0.18 0.17 0.20 0.25 0.30 0.16 0.11 0.11 0.06 0.01
0.00 0.00 0.00 0.01 0.02 0.05 0.07 0.18 0.25 0.45 0.50 0.67 0.88 1.05 0.89 0.72 0.68 0.59 0.55 0.43 0.35 0.26 0.14 0.09 0.03 0.01 0.00 0.00 0.00 0.01 0.01 0.06 0.31 0.33 0.16 0.10 0.12 0.13 0.14 0.08 0.10 0.10 0.03
0.00 0.00 0.00 0.00 0.01 0.03 0.05 0.07 0.13 0.23 0.41 0.87 1.11 1.34 1.20 0.97 0.68 0.46 0.45 0.47 0.35 0.18 0.06 0.02 0.01 0.00 0.00 0.00 0.00 0.01 0.01 0.03 0.19 0.64 0.42 0.16 0.18 0.08 0.08 0.08 0.06 0.04 0.04
0.00 0.00 0.00 0.00 0.00 0.02 0.03 0.05 0.06 0.07 0.06 0.05 0.06 0.17 0.33 0.31 0.22 0.17 0.10 0.04 0.03 0.01 0.00 0.00 0.00 0.00 0.00 0.00 0.00 0.01 0.01 0.03 0.33 0.43 0.75 0.44 0.26 0.19 0.08 0.04 0.05 0.03 0.02
0.00 0.00 0.00 0.00 0.00 0.00 0.03 0.06 0.06 0.07 0.06 0.05 0.04 0.04 0.05 0.04 0.02 0.01 0.01 0.01 0.00 0.00 0.00 0.00 0.00 0.00 0.00 0.00 0.00 0.03 0.10 0.13 0.26 0.48 0.51 0.78 0.54 0.30 0.21 0.08 0.04 0.05 0.04
0.00 0.00 0.00 0.00 0.00 0.00 0.02 0.10 0.13 0.14 0.15 0.14 0.11 0.09 0.09 0.07 0.06 0.06 0.05 0.03 0.01 0.00 0.00 0.00 0.00 0.00 0.00 0.00 0.01 0.03 0.11 0.18 0.28 0.35 0.49 0.48 0.63 0.59 0.33 0.20 0.12 0.06 0.05
0.00 0.00 0.00 0.00 0.00 0.00 0.01 0.04 0.09 0.17 0.26 0.26 0.16 0.16 0.13 0.12 0.13 0.11 0.09 0.09 0.04 0.01 0.00 0.00 0.00 0.00 0.00 0.01 0.01 0.05 0.09 0.17 0.20 0.39 0.47 0.51 0.48 0.54 0.57 0.39 0.24 0.18 0.09
0.00 0.00 0.00 0.00 0.00 0.00 0.00 0.02 0.07 0.10 0.16 0.18 0.11 0.13 0.15 0.15 0.16 0.14 0.13 0.13 0.11 0.03 0.00 0.00 0.00 0.00 0.00 0.00 0.01 0.01 0.05 0.12 0.17 0.19 0.30 0.56 0.49 0.52 0.54 0.56 0.49 0.31 0.24
0.00 0.01 0.00 0.00 0.00 0.00 0.01 0.02 0.06 0.13 0.15 0.22 0.29 0.20 0.19 0.09 0.10 0.19 0.19 0.25 0.23 0.11 0.03 0.02 0.01 0.01 0.01 0.01 0.02 0.01 0.01 0.04 0.09 0.17 0.20 0.24 0.48 0.54 0.52 0.49 0.52 0.58 0.42
0.01 0.01 0.01 0.01 0.02 0.03 0.05 0.07 0.10 0.17 0.18 0.15 0.32 0.19 0.09 0.15 0.12 0.24 0.34 0.31 0.32 0.30 0.14 0.08 0.04 0.04 0.03 0.03 0.04 0.02 0.01 0.02 0.02 0.04 0.11 0.19 0.24 0.42 0.57 0.52 0.44 0.47 0.55
0.00 0.00 0.00 0.00 0.04 0.08 0.12 0.09 0.13 0.14 0.13 0.09 0.16 0.31 0.13 0.14 0.22 0.27 0.36 0.34 0.30 0.35 0.41 0.29 0.21 0.15 0.09 0.06 0.05 0.05 0.04 0.02 0.04 0.04 0.03 0.10 0.18 0.24 0.41 0.63 0.58 0.46 0.43
0.00 0.00 0.00 0.00 0.02 0.05 0.09 0.11 0.18 0.28 0.23 0.12 0.17 0.24 0.22 0.26 0.32 0.45 0.45 0.32 0.27 0.26 0.26 0.29 0.29 0.25 0.24 0.16 0.09 0.05 0.03 0.01 0.02 0.04 0.03 0.03 0.11 0.22 0.25 0.33 0.59 0.65 0.47
0.00 0.00 0.00 0.00 0.00 0.01 0.13 0.34 0.39 0.25 0.25 0.25 0.28 0.32 0.40 0.43 0.22 0.18 0.28 0.38 0.42 0.32 0.21 0.19 0.19 0.22 0.18 0.18 0.24 0.16 0.05 0.01 0.01 0.01 0.02 0.04 0.10 0.21 0.39 0.36 0.33 0.46 0.61
0.00 0.00 0.00 0.01 0.03 0.08 0.17 0.19 0.21 0.42 0.37 0.33 0.46 0.49 0.37 0.47 0.40 0.26 0.28 0.21 0.24 0.36 0.34 0.21 0.19 0.19 0.15 0.14 0.14 0.16 0.14 0.06 0.02 0.02 0.03 0.01 0.04 0.11 0.24 0.53 0.56 0.54 0.56
0.00 0.00 0.01 0.01 0.01 0.04 0.18 0.19 0.16 0.23 0.39 0.55 0.39 0.33 0.58 0.74 0.36 0.25 0.30 0.33 0.35 0.32 0.26 0.29 0.23 0.15 0.07 0.04 0.07 0.09 0.10 0.11 0.12 0.04 0.05 0.07 0.04 0.05 0.08 0.12 0.41 0.55 0.65
0.00 0.01 0.01 0.02 0.03 0.04 0.09 0.14 0.24 0.56 0.49 0.39 0.51 0.42 0.31 0.55 0.65 0.53 0.39 0.41 0.50 0.49 0.38 0.32 0.28 0.23 0.14 0.07 0.06 0.06 0.05 0.06 0.10 0.07 0.08 0.11 0.11 0.13 0.12 0.17 0.25 0.25 0.43
0.02 0.04 0.05 0.07 0.06 0.11 0.12 0.15 0.31 0.55 0.62 0.45 0.43 0.49 0.50 0.49 0.64 0.53 0.44 0.39 0.41 0.51 0.61 0.56 0.44 0.26 0.26 0.26 0.17 0.14 0.12 0.12 0.09 0.13 0.17 0.19 0.17 0.19 0.16 0.15 0.31 0.24 0.22
0.02 0.05 0.07 0.08 0.10 0.15 0.22 0.25 0.29 0.41 0.71 0.70 0.53 0.51 0.42 0.47 0.58 0.73 0.66 0.72 0.58 0.45 0.57 0.58 0.63 0.66 0.53 0.44 0.40 0.26 0.20 0.21 0.24 0.21 0.23 0.18 0.15 0.18 0.19 0.17 0.19 0.29 0.27
0.03 0.03 0.02 0.03 0.04 0.07 0.14 0.18 0.23 0.33 0.45 0.62 0.59 0.57 0.67 0.67 0.63 0.62 0.62 0.64 0.79 0.72 0.57 0.60 0.50 0.38 0.42 0.51 0.62 0.39 0.21 0.18 0.19 0.19 0.14 0.17 0.18 0.20 0.24 0.19 0.16 0.19 0.22

GFSMA_prec_precacc12_126.txt.gz
Total_Precipitation_Accumulation
0.11 0.12 0.06 0.05 0.06 0.04 0.02 0.02 0.05 0.09 0.07 0.06 0.04 0.02 0.00 0.00 0.00 0.00 0.00 0.00 0.00 0.00 0.02 0.08 0.20 0.18 0.14 0.11 0.09 0.13 0.31 0.37 0.32 0.38 0.34 0.28 0.26 0.26 0.16 0.06 0.02 0.00 0.00
0.08 0.08 0.08 0.06 0.08 0.10 0.20 0.10 0.03 0.05 0.07 0.04 0.02 0.03 0.03 0.01 0.01 0.00 0.00 0.00 0.00 0.00 0.01 0.05 0.16 0.16 0.15 0.15 0.10 0.10 0.19 0.32 0.41 0.45 0.27 0.19 0.25 0.35 0.27 0.13 0.00 0.00 0.00
0.13 0.13 0.12 0.06 0.07 0.15 0.31 0.14 0.12 0.12 0.07 0.07 0.03 0.01 0.02 0.04 0.04 0.01 0.00 0.00 0.00 0.00 0.00 0.00 0.05 0.12 0.14 0.16 0.11 0.09 0.14 0.22 0.28 0.43 0.31 0.17 0.21 0.33 0.28 0.17 0.05 0.00 0.00
0.23 0.28 0.29 0.28 0.21 0.50 0.55 0.30 0.21 0.22 0.16 0.10 0.06 0.06 0.05 0.07 0.05 0.04 0.03 0.02 0.01 0.00 0.00 0.00 0.00 0.03 0.08 0.09 0.09 0.09 0.14 0.19 0.33 0.53 0.34 0.13 0.12 0.25 0.23 0.21 0.08 0.02 0.00
0.28 0.27 0.30 0.43 0.54 0.68 0.70 0.67 0.65 0.41 0.27 0.13 0.15 0.12 0.08 0.12 0.11 0.12 0.07 0.05 0.03 0.01 0.00 0.00 0.00 0.00 0.03 0.03 0.09 0.11 0.13 0.13 0.19 0.51 0.49 0.26 0.12 0.27 0.18 0.14 0.09 0.04 0.00
0.02 0.04 0.09 0.28 0.41 0.54 0.74 0.98 0.99 0.73 0.64 0.65 0.75 0.62 0.52 0.44 0.34 0.29 0.19 0.18 0.13 0.08 0.05 0.02 0.01 0.00 0.01 0.02 0.04 0.10 0.11 0.09 0.13 0.43 0.53 0.42 0.20 0.26 0.22 0.14 0.08 0.04 0.01
0.00 0.00 0.00 0.04 0.11 0.12 0.21 0.42 0.61 0.71 0.75 1.15 1.80 1.78 1.28 0.96 0.98 1.11 0.96 0.47 0.27 0.23 0.18 0.08 0.04 0.01 0.00 0.00 0.01 0.04 0.07 0.07 0.07 0.12 0.31 0.43 0.42 0.28 0.21 0.15 0.08 0.05 0.03
0.00 0.00 0.00 0.00 0.00 0.01 0.01 0.03 0.10 0.16 0.31 0.59 0.93 1.14 1.15 0.78 0.49 0.35 0.42 0.41 0.30 0.23 0.15 0.09 0.04 0.01 0.00 0.00 0.00 0.00 0.04 0.09 0.11 0.10 0.10 0.16 0.23 0.30 0.17 0.12 0.12 0.09 0.04
0.00 0.00 0.00 0.00 0.00 0.00 0.00 0.01 0.02 0.08 0.07 0.14 0.34 0.53 0.61 0.64 0.64 0.59 0.55 0.43 0.35 0.26 0.13 0.09 0.03 0.01 0.00 0.00 0.00 0.00 0.00 0.03 0.10 0.16 0.11 0.10 0.12 0.13 0.14 0.08 0.11 0.17 0.17
0.00 0.00 0.00 0.00 0.00 0.00 0.00 0.01 0.01 0.04 0.08 0.04 0.04 0.15 0.36 0.70 0.61 0.45 0.45 0.47 0.35 0.19 0.06 0.02 0.01 0.00 0.00 0.00 0.00 0.00 0.00 0.01 0.01 0.09 0.25 0.14 0.17 0.08 0.08 0.08 0.06 0.05 0.12
0.00 0.00 0.00 0.00 0.00 0.00 0.00 0.01 0.01 0.01 0.03 0.03 0.02 0.04 0.08 0.16 0.19 0.19 0.11 0.05 0.04 0.01 0.00 0.00 0.00 0.00 0.00 0.00 0.00 0.00 0.00 0.00 0.00 0.02 0.20 0.30 0.25 0.19 0.08 0.05 0.07 0.05 0.03
0.00 0.00 0.00 0.00 0.00 0.00 0.00 0.00 0.01 0.01 0.02 0.04 0.04 0.04 0.04 0.04 0.02 0.04 0.03 0.01 0.01 0.00 0.00 0.00 0.00 0.00 0.00 0.00 0.00 0.01 0.00 0.00 0.00 0.00 0.03 0.50 0.50 0.30 0.21 0.09 0.05 0.06 0.05
0.00 0.00 0.00 0.00 0.00 0.00 0.00 0.00 0.01 0.01 0.03 0.05 0.06 0.05 0.04 0.03 0.03 0.02 0.02 0.02 0.01 0.00 0.00 0.00 0.00 0.00 0.00 0.00 0.00 0.00 0.00 0.00 0.01 0.02 0.02 0.14 0.55 0.59 0.33 0.21 0.13 0.07 0.06
0.00 0.00 0.00 0.00 0.00 0.00 0.00 0.00 0.01 0.02 0.04 0.05 0.06 0.06 0.06 0.04 0.04 0.04 0.04 0.06 0.05 0.01 0.00 0.00 0.00 0.00 0.00 0.01 0.01 0.01 0.00 0.01 0.02 0.20 0.19 0.22 0.37 0.52 0.57 0.39 0.24 0.19 0.10
0.00 0.00 0.00 0.00 0.00 0.00 0.00 0.01 0.02 0.03 0.04 0.06 0.06 0.05 0.05 0.04 0.05 0.07 0.09 0.11 0.12 0.05 0.01 0.00 0.00 0.00 0.00 0.00 0.01 0.00 0.01 0.01 0.03 0.06 0.20 0.43 0.37 0.48 0.54 0.56 0.49 0.32 0.26
0.00 0.00 0.00 0.00 0.00 0.00 0.01 0.01 0.01 0.01 0.03 0.04 0.05 0.09 0.08 0.05 0.07 0.13 0.14 0.18 0.17 0.12 0.05 0.03 0.01 0.01 0.01 0.01 0.02 0.01 0.01 0.02 0.03 0.07 0.11 0.16 0.37 0.46 0.50 0.49 0.53 0.58 0.43
0.00 0.00 0.00 0.00 0.01 0.01 0.01 0.01 0.01 0.00 0.01 0.05 0.04 0.07 0.05 0.10 0.09 0.18 0.26 0.26 0.25 0.26 0.15 0.09 0.05 0.07 0.06 0.05 0.05 0.03 0.01 0.00 0.00 0.02 0.06 0.13 0.17 0.36 0.54 0.51 0.44 0.47 0.56
0.00 0.00 0.00 0.00 0.00 0.00 0.00 0.01 0.01 0.01 0.01 0.03 0.07 0.12 0.08 0.09 0.15 0.18 0.27 0.28 0.25 0.26 0.36 0.28 0.21 0.16 0.11 0.08 0.07 0.07 0.03 0.01 0.01 0.03 0.02 0.08 0.14 0.17 0.36 0.62 0.57 0.46 0.43
0.00 0.00 0.00 0.00 0.00 0.00 0.00 0.00 0.02 0.05 0.05 0.04 0.06 0.09 0.10 0.14 0.12 0.12 0.14 0.16 0.20 0.23 0.24 0.30 0.29 0.26 0.26 0.20 0.14 0.08 0.05 0.02 0.01 0.04 0.03 0.04 0.10 0.16 0.19 0.32 0.58 0.64 0.47
0.00 0.00 0.00 0.00 0.01 0.00 0.00 0.00 0.01 0.03 0.04 0.08 0.11 0.13 0.15 0.20 0.15 0.10 0.11 0.12 0.16 0.19 0.18 0.19 0.21 0.24 0.19 0.19 0.27 0.21 0.07 0.02 0.01 0.01 0.02 0.04 0.08 0.18 0.36 0.36 0.32 0.45 0.61
0.00 0.00 0.00 0.00 0.00 0.01 0.02 0.01 0.01 0.00 0.01 0.03 0.24 0.33 0.20 0.25 0.29 0.19 0.14 0.10 0.15 0.27 0.31 0.21 0.21 0.24 0.24 0.18 0.16 0.16 0.14 0.09 0.05 0.04 0.04 0.02 0.03 0.10 0.20 0.48 0.55 0.52 0.54
0.00 0.00 0.00 0.00 0.01 0.01 0.02 0.02 0.03 0.03 0.05 0.18 0.21 0.23 0.48 0.72 0.35 0.20 0.20 0.18 0.22 0.23 0.25 0.35 0.30 0.23 0.16 0.16 0.14 0.13 0.13 0.14 0.14 0.04 0.04 0.07 0.04 0.02 0.04 0.07 0.34 0.48 0.56
0.00 0.00 0.01 0.01 0.02 0.03 0.03 0.03 0.08 0.08 0.07 0.13 0.34 0.35 0.29 0.53 0.60 0.49 0.32 0.31 0.39 0.45 0.36 0.31 0.33 0.43 0.35 0.31 0.28 0.19 0.15 0.09 0.09 0.07 0.05 0.05 0.04 0.04 0.02 0.04 0.08 0.14 0.34
0.01 0.02 0.02 0.03 0.03 0.06 0.06 0.07 0.09 0.11 0.12 0.14 0.20 0.41 0.47 0.47 0.58 0.40 0.26 0.32 0.38 0.50 0.62 0.58 0.45 0.31 0.33 0.32 0.25 0.22 0.17 0.13 0.09 0.09 0.22 0.24 0.10 0.06 0.04 0.05 0.13 0.11 0.13
0.00 0.01 0.02 0.03 0.05 0.09 0.12 0.15 0.15 0.16 0.16 0.17 0.22 0.31 0.30 0.39 0.47 0.61 0.55 0.60 0.56 0.45 0.59 0.62 0.68 0.75 0.62 0.53 0.43 0.38 0.42 0.36 0.24 0.13 0.11 0.14 0.19 0.15 0.08 0.07 0.09 0.17 0.19
0.00 0.00 0.00 0.01 0.02 0.04 0.06 0.08 0.11 0.13 0.16 0.21 0.27 0.35 0.50 0.51 0.49 0.48 0.54 0.57 0.73 0.74 0.63 0.66 0.58 0.50 0.57 0.68 0.78 0.66 0.58 0.41 0.27 0.20 0.14 0.17 0.12 0.19 0.28 0.14 0.09 0.12 0.16

GFSMA_prec_precacc12_129.txt.gz
Total_Precipitation_Accumulation
0.17 0.22 0.15 0.13 0.11 0.12 0.12 0.15 0.16 0.19 0.17 0.17 0.11 0.04 0.01 0.00 0.00 0.00 0.00 0.00 0.00 0.00 0.00 0.05 0.16 0.12 0.10 0.08 0.09 0.12 0.27 0.21 0.17 0.20 0.21 0.23 0.25 0.26 0.16 0.07 0.11 0.03 0.00
0.12 0.13 0.17 0.17 0.16 0.18 0.28 0.20 0.12 0.16 0.18 0.12 0.06 0.09 0.09 0.05 0.02 0.00 0.00 0.00 0.00 0.00 0.00 0.02 0.12 0.12 0.13 0.12 0.10 0.07 0.15 0.22 0.24 0.29 0.18 0.18 0.24 0.34 0.32 0.22 0.05 0.02 0.00
0.13 0.14 0.18 0.16 0.16 0.28 0.46 0.30 0.28 0.28 0.20 0.12 0.03 0.02 0.07 0.13 0.08 0.03 0.01 0.00 0.00 0.00 0.00 0.00 0.04 0.09 0.11 0.14 0.12 0.07 0.10 0.13 0.12 0.20 0.26 0.19 0.19 0.33 0.30 0.23 0.20 0.07 0.01
0.16 0.15 0.16 0.18 0.13 0.29 0.39 0.28 0.33 0.50 0.42 0.25 0.11 0.08 0.06 0.12 0.11 0.16 0.13 0.06 0.01 0.00 0.00 0.00 0.00 0.01 0.04 0.06 0.07 0.07 0.08 0.09 0.09 0.15 0.21 0.19 0.16 0.27 0.24 0.23 0.17 0.13 0.03
0.06 0.10 0.14 0.17 0.26 0.39 0.40 0.46 0.53 0.42 0.42 0.36 0.39 0.27 0.15 0.14 0.19 0.28 0.16 0.18 0.12 0.06 0.03 0.03 0.00 0.00 0.00 0.01 0.05 0.06 0.06 0.07 0.06 0.09 0.16 0.17 0.13 0.25 0.19 0.14 0.12 0.11 0.05
0.00 0.01 0.01 0.05 0.11 0.21 0.37 0.58 0.74 0.55 0.52 0.61 0.82 0.78 0.73 0.69 0.58 0.65 0.53 0.54 0.43 0.31 0.17 0.09 0.05 0.01 0.00 0.00 0.01 0.05 0.06 0.06 0.05 0.06 0.11 0.20 0.20 0.25 0.22 0.14 0.08 0.06 0.05
0.00 0.00 0.00 0.00 0.00 0.02 0.09 0.25 0.32 0.39 0.39 0.80 1.63 1.64 1.26 1.29 1.61 1.78 2.01 1.22 0.75 0.45 0.35 0.16 0.07 0.05 0.01 0.00 0.00 0.01 0.04 0.03 0.06 0.06 0.05 0.13 0.30 0.24 0.22 0.16 0.08 0.06 0.04
0.00 0.00 0.00 0.00 0.00 0.00 0.00 0.01 0.02 0.07 0.18 0.34 0.50 0.76 0.91 0.68 0.42 0.26 0.31 0.34 0.27 0.22 0.15 0.10 0.05 0.03 0.03 0.02 0.00 0.00 0.01 0.02 0.04 0.05 0.03 0.05 0.12 0.24 0.17 0.12 0.12 0.09 0.04
0.00 0.00 0.00 0.00 0.00 0.00 0.00 0.00 0.00 0.01 0.03 0.07 0.21 0.28 0.19 0.10 0.06 0.08 0.06 0.11 0.26 0.23 0.12 0.08 0.03 0.02 0.02 0.02 0.01 0.01 0.01 0.00 0.01 0.05 0.04 0.03 0.02 0.08 0.13 0.08 0.11 0.17 0.18
0.00 0.00 0.00 0.00 0.00 0.00 0.01 0.01 0.00 0.01 0.02 0.02 0.02 0.09 0.11 0.08 0.07 0.04 0.03 0.07 0.21 0.16 0.06 0.01 0.01 0.00 0.00 0.01 0.00 0.01 0.00 0.00 0.00 0.01 0.06 0.04 0.04 0.04 0.07 0.08 0.06 0.05 0.12
0.00 0.00 0.00 0.00 0.00 0.00 0.01 0.01 0.01 0.01 0.01 0.01 0.01 0.02 0.05 0.08 0.08 0.09 0.05 0.02 0.05 0.03 0.01 0.00 0.00 0.00 0.01 0.01 0.00 0.00 0.00 0.00 0.00 0.00 0.01 0.06 0.12 0.13 0.06 0.04 0.07 0.05 0.03
0.00 0.00 0.00 0.00 0.00 0.00 0.01 0.01 0.01 0.01 0.01 0.02 0.02 0.02 0.02 0.02 0.02 0.05 0.06 0.03 0.03 0.01 0.01 0.01 0.00 0.00 0.00 0.01 0.01 0.00 0.00 0.00 0.00 0.00 0.00 0.00 0.05 0.17 0.16 0.07 0.04 0.06 0.05
0.00 0.00 0.00 0.00 0.00 0.00 0.00 0.01 0.00 0.01 0.01 0.02 0.02 0.02 0.03 0.02 0.02 0.02 0.03 0.03 0.01 0.00 0.00 0.00 0.00 0.00 0.01 0.01 0.01 0.01 0.00 0.00 0.00 0.00 0.00 0.01 0.02 0.07 0.14 0.14 0.11 0.07 0.06
0.01 0.01 0.01 0.01 0.00 0.00 0.00 0.00 0.00 0.01 0.02 0.02 0.03 0.03 0.03 0.03 0.04 0.05 0.04 0.06 0.05 0.01 0.00 0.00 0.00 0.00 0.00 0.00 0.00 0.01 0.00 0.01 0.00 0.00 0.00 0.00 0.01 0.08 0.22 0.18 0.19 0.18 0.10
0.01 0.01 0.02 0.02 0.01 0.00 0.00 0.00 0.01 0.01 0.01 0.02 0.02 0.03 0.03 0.03 0.03 0.04 0.05 0.07 0.09 0.05 0.02 0.00 0.00 0.00 0.00 0.00 0.00 0.00 0.02 0.01 0.02 0.02 0.02 0.03 0.02 0.04 0.18 0.34 0.42 0.31 0.26
0.00 0.00 0.00 0.00 0.00 0.00 0.00 0.01 0.01 0.01 0.01 0.02 0.02 0.03 0.04 0.04 0.04 0.05 0.07 0.10 0.10 0.10 0.05 0.03 0.01 0.01 0.01 0.01 0.01 0.01 0.01 0.02 0.02 0.03 0.04 0.03 0.04 0.08 0.15 0.31 0.47 0.58 0.43
0.00 0.00 0.00 0.00 0.00 0.00 0.00 0.00 0.00 0.00 0.01 0.02 0.03 0.03 0.04 0.04 0.06 0.07 0.08 0.11 0.16 0.21 0.13 0.07 0.07 0.07 0.06 0.05 0.04 0.05 0.04 0.03 0.03 0.01 0.02 0.03 0.04 0.15 0.23 0.33 0.39 0.44 0.55
0.00 0.00 0.00 0.00 0.00 0.00 0.00 0.00 0.00 0.00 0.01 0.01 0.03 0.04 0.04 0.04 0.04 0.08 0.12 0.13 0.16 0.16 0.19 0.19 0.20 0.16 0.12 0.10 0.09 0.09 0.06 0.03 0.03 0.03 0.01 0.03 0.05 0.06 0.19 0.39 0.43 0.38 0.38
0.00 0.00 0.00 0.00 0.00 0.00 0.00 0.00 0.00 0.00 0.01 0.02 0.04 0.06 0.06 0.08 0.07 0.07 0.09 0.10 0.11 0.16 0.19 0.25 0.25 0.22 0.25 0.21 0.15 0.09 0.08 0.05 0.04 0.03 0.01 0.02 0.04 0.06 0.08 0.18 0.37 0.52 0.43
0.00 0.00 0.00 0.00 0.01 0.00 0.00 0.00 0.00 0.00 0.00 0.02 0.04 0.08 0.12 0.13 0.10 0.06 0.06 0.06 0.10 0.12 0.14 0.16 0.20 0.24 0.22 0.22 0.30 0.26 0.11 0.05 0.04 0.02 0.01 0.01 0.02 0.09 0.19 0.16 0.19 0.31 0.59
0.00 0.00 0.00 0.00 0.00 0.00 0.01 0.00 0.00 0.00 0.00 0.00 0.00 0.01 0.04 0.11 0.12 0.09 0.09 0.08 0.10 0.14 0.14 0.12 0.14 0.18 0.23 0.22 0.21 0.20 0.18 0.15 0.10 0.07 0.05 0.02 0.01 0.08 0.17 0.40 0.37 0.26 0.39
0.00 0.00 0.00 0.00 0.00 0.01 0.01 0.00 0.00 0.00 0.00 0.00 0.00 0.00 0.01 0.01 0.02 0.05 0.14 0.17 0.20 0.21 0.20 0.20 0.18 0.18 0.15 0.18 0.16 0.16 0.15 0.17 0.16 0.05 0.05 0.07 0.04 0.02 0.04 0.07 0.31 0.42 0.43
0.00 0.00 0.00 0.00 0.00 0.00 0.00 0.00 0.00 0.01 0.01 0.03 0.04 0.03 0.02 0.02 0.05 0.20 0.28 0.29 0.28 0.24 0.17 0.17 0.24 0.32 0.28 0.31 0.30 0.23 0.20 0.20 0.17 0.11 0.12 0.09 0.04 0.05 0.03 0.03 0.05 0.11 0.30
0.00 0.01 0.00 0.00 0.00 0.01 0.00 0.00 0.01 0.03 0.05 0.07 0.10 0.11 0.11 0.17 0.31 0.32 0.23 0.25 0.31 0.31 0.34 0.33 0.26 0.25 0.31 0.33 0.25 0.23 0.21 0.25 0.24 0.23 0.38 0.42 0.12 0.05 0.03 0.03 0.07 0.06 0.09
0.00 0.00 0.01 0.01 0.00 0.00 0.00 0.01 0.02 0.04 0.07 0.09 0.09 0.09 0.10 0.15 0.30 0.42 0.47 0.34 0.28 0.28 0.37 0.47 0.63 0.70 0.60 0.50 0.42 0.37 0.42 0.36 0.28 0.17 0.18 0.30 0.27 0.17 0.08 0.04 0.05 0.09 0.08
0.00 0.00 0.00 0.00 0.00 0.00 0.00 0.00 0.00 0.01 0.03 0.05 0.05 0.08 0.11 0.19 0.21 0.26 0.42 0.45 0.38 0.39 0.46 0.47 0.44 0.48 0.57 0.68 0.76 0.67 0.62 0.46 0.35 0.26 0.24 0.32 0.25 0.28 0.35 0.15 0.06 0.06 0.07

GFSMA_prec_precacc12_132.txt.gz
Total_Precipitation_Accumulation
0.21 0.25 0.21 0.21 0.31 0.35 0.31 0.33 0.29 0.23 0.18 0.17 0.11 0.04 0.02 0.03 0.03 0.00 0.00 0.00 0.00 0.00 0.00 0.02 0.13 0.10 0.08 0.07 0.05 0.06 0.20 0.16 0.08 0.08 0.10 0.08 0.06 0.18 0.23 0.07 0.11 0.04 0.00
0.15 0.16 0.20 0.21 0.20 0.29 0.47 0.48 0.44 0.47 0.33 0.21 0.09 0.09 0.09 0.07 0.05 0.01 0.00 0.03 0.03 0.00 0.00 0.02 0.11 0.11 0.13 0.11 0.10 0.07 0.11 0.16 0.15 0.16 0.08 0.07 0.12 0.21 0.29 0.30 0.08 0.03 0.01
0.12 0.13 0.17 0.16 0.18 0.26 0.37 0.45 0.65 0.72 0.62 0.48 0.31 0.24 0.19 0.18 0.12 0.12 0.04 0.02 0.04 0.03 0.02 0.00 0.04 0.09 0.10 0.12 0.12 0.06 0.09 0.10 0.07 0.09 0.11 0.09 0.10 0.16 0.21 0.23 0.22 0.08 0.02
0.09 0.10 0.13 0.17 0.12 0.14 0.16 0.19 0.30 0.53 0.59 0.51 0.48 0.62 0.55 0.59 0.50 0.33 0.23 0.08 0.07 0.06 0.10 0.06 0.01 0.01 0.04 0.09 0.08 0.07 0.07 0.07 0.06 0.08 0.10 0.11 0.12 0.19 0.21 0.21 0.18 0.16 0.10
0.01 0.02 0.04 0.07 0.12 0.12 0.11 0.13 0.29 0.26 0.33 0.32 0.40 0.60 0.90 1.12 1.20 0.84 0.45 0.37 0.31 0.31 0.27 0.20 0.11 0.06 0.01 0.04 0.07 0.07 0.06 0.05 0.04 0.05 0.05 0.05 0.08 0.13 0.15 0.13 0.12 0.12 0.08
0.00 0.00 0.00 0.00 0.01 0.05 0.11 0.17 0.33 0.29 0.34 0.44 0.63 0.65 0.72 0.84 0.87 1.01 0.77 0.89 0.85 0.66 0.48 0.30 0.19 0.12 0.06 0.03 0.02 0.06 0.06 0.05 0.04 0.02 0.03 0.03 0.06 0.12 0.14 0.12 0.08 0.06 0.06
0.00 0.00 0.00 0.00 0.00 0.00 0.00 0.02 0.04 0.09 0.20 0.53 1.17 1.35 1.14 1.20 1.52 1.77 2.23 2.21 2.39 2.08 1.42 0.70 0.23 0.10 0.06 0.05 0.04 0.02 0.04 0.04 0.04 0.02 0.00 0.01 0.05 0.10 0.13 0.13 0.08 0.06 0.04
0.00 0.00 0.00 0.00 0.00 0.00 0.00 0.00 0.00 0.00 0.02 0.07 0.20 0.49 0.76 0.52 0.30 0.19 0.18 0.17 0.14 0.13 0.09 0.04 0.02 0.03 0.05 0.09 0.06 0.07 0.04 0.03 0.03 0.03 0.01 0.00 0.01 0.07 0.09 0.11 0.13 0.09 0.04
0.00 0.00 0.00 0.00 0.00 0.00 0.00 0.00 0.00 0.00 0.01 0.01 0.05 0.10 0.11 0.05 0.03 0.05 0.05 0.02 0.03 0.02 0.01 0.00 0.00 0.01 0.03 0.06 0.11 0.09 0.09 0.07 0.02 0.03 0.01 0.01 0.00 0.02 0.08 0.07 0.11 0.18 0.18
0.00 0.00 0.00 0.00 0.00 0.00 0.00 0.01 0.00 0.01 0.01 0.01 0.02 0.05 0.06 0.07 0.07 0.05 0.05 0.05 0.02 0.01 0.01 0.01 0.00 0.00 0.00 0.01 0.02 0.08 0.08 0.10 0.05 0.01 0.01 0.00 0.00 0.00 0.03 0.06 0.06 0.05 0.12
0.00 0.00 0.00 0.00 0.00 0.00 0.00 0.00 0.01 0.01 0.01 0.01 0.01 0.02 0.05 0.07 0.07 0.09 0.06 0.03 0.06 0.05 0.05 0.03 0.01 0.01 0.01 0.01 0.01 0.01 0.03 0.03 0.03 0.02 0.01 0.02 0.00 0.00 0.01 0.03 0.06 0.05 0.03
0.00 0.00 0.00 0.00 0.00 0.00 0.00 0.00 0.00 0.01 0.01 0.01 0.01 0.02 0.02 0.03 0.03 0.06 0.06 0.03 0.03 0.02 0.04 0.06 0.08 0.03 0.02 0.02 0.02 0.00 0.02 0.04 0.03 0.02 0.02 0.01 0.01 0.02 0.03 0.02 0.04 0.06 0.05
0.00 0.00 0.00 0.00 0.00 0.00 0.00 0.00 0.00 0.00 0.01 0.01 0.01 0.01 0.02 0.02 0.02 0.03 0.03 0.03 0.01 0.00 0.01 0.00 0.02 0.06 0.08 0.08 0.04 0.03 0.01 0.00 0.02 0.02 0.03 0.02 0.02 0.06 0.09 0.10 0.08 0.05 0.05
0.01 0.01 0.01 0.01 0.00 0.00 0.00 0.00 0.00 0.01 0.01 0.01 0.01 0.01 0.02 0.02 0.03 0.04 0.04 0.06 0.05 0.02 0.00 0.00 0.00 0.02 0.07 0.12 0.10 0.09 0.04 0.03 0.02 0.04 0.05 0.03 0.01 0.04 0.08 0.10 0.12 0.10 0.05
0.01 0.01 0.02 0.02 0.01 0.00 0.00 0.01 0.01 0.00 0.01 0.01 0.01 0.01 0.02 0.02 0.02 0.03 0.04 0.06 0.08 0.06 0.02 0.00 0.00 0.00 0.00 0.00 0.00 0.02 0.05 0.07 0.06 0.03 0.04 0.05 0.03 0.04 0.04 0.04 0.06 0.10 0.12
0.00 0.00 0.00 0.00 0.00 0.00 0.00 0.00 0.00 0.00 0.00 0.00 0.01 0.01 0.02 0.03 0.03 0.04 0.06 0.08 0.09 0.10 0.05 0.03 0.01 0.00 0.00 0.00 0.01 0.02 0.03 0.09 0.06 0.05 0.05 0.05 0.04 0.05 0.05 0.04 0.05 0.13 0.18
0.00 0.00 0.00 0.00 0.00 0.00 0.00 0.00 0.00 0.00 0.00 0.01 0.01 0.02 0.03 0.03 0.04 0.05 0.07 0.09 0.11 0.15 0.11 0.05 0.04 0.04 0.03 0.04 0.04 0.07 0.06 0.04 0.07 0.03 0.03 0.04 0.03 0.03 0.02 0.02 0.03 0.05 0.19
0.00 0.00 0.00 0.00 0.00 0.00 0.00 0.00 0.00 0.00 0.00 0.01 0.01 0.02 0.04 0.04 0.05 0.05 0.07 0.08 0.08 0.08 0.09 0.07 0.04 0.04 0.05 0.06 0.09 0.10 0.07 0.04 0.05 0.09 0.07 0.09 0.08 0.03 0.03 0.03 0.07 0.12 0.16
0.00 0.00 0.00 0.00 0.00 0.00 0.00 0.00 0.00 0.00 0.00 0.01 0.02 0.03 0.04 0.04 0.04 0.05 0.06 0.06 0.06 0.08 0.12 0.12 0.08 0.06 0.12 0.14 0.11 0.11 0.09 0.06 0.04 0.05 0.03 0.05 0.06 0.04 0.03 0.04 0.09 0.19 0.26
0.00 0.00 0.00 0.00 0.01 0.00 0.00 0.00 0.00 0.00 0.00 0.00 0.01 0.01 0.03 0.04 0.05 0.05 0.05 0.06 0.07 0.07 0.07 0.09 0.12 0.11 0.10 0.15 0.26 0.24 0.11 0.05 0.04 0.04 0.03 0.02 0.03 0.05 0.05 0.04 0.04 0.11 0.31
0.00 0.00 0.00 0.00 0.00 0.00 0.01 0.00 0.00 0.00 0.00 0.00 0.00 0.00 0.01 0.05 0.06 0.05 0.06 0.07 0.08 0.09 0.10 0.09 0.12 0.17 0.16 0.15 0.16 0.18 0.18 0.14 0.10 0.07 0.07 0.05 0.02 0.01 0.02 0.10 0.11 0.09 0.14
0.00 0.00 0.00 0.00 0.00 0.00 0.00 0.00 0.00 0.00 0.00 0.00 0.00 0.00 0.00 0.01 0.02 0.03 0.06 0.10 0.16 0.16 0.15 0.17 0.16 0.17 0.15 0.18 0.14 0.14 0.15 0.17 0.16 0.05 0.05 0.05 0.04 0.02 0.01 0.01 0.11 0.19 0.15
0.00 0.00 0.00 0.00 0.00 0.00 0.00 0.00 0.00 0.00 0.00 0.01 0.01 0.01 0.00 0.01 0.01 0.00 0.01 0.03 0.05 0.08 0.10 0.14 0.24 0.33 0.28 0.28 0.27 0.21 0.20 0.20 0.17 0.11 0.11 0.09 0.03 0.04 0.02 0.02 0.03 0.09 0.27
0.01 0.01 0.00 0.00 0.00 0.00 0.00 0.00 0.00 0.00 0.00 0.00 0.01 0.01 0.02 0.02 0.03 0.02 0.01 0.03 0.09 0.12 0.15 0.20 0.24 0.25 0.28 0.26 0.19 0.16 0.18 0.23 0.23 0.23 0.39 0.45 0.13 0.06 0.04 0.04 0.07 0.07 0.09
0.00 0.00 0.00 0.00 0.00 0.00 0.00 0.00 0.00 0.00 0.00 0.00 0.00 0.01 0.01 0.02 0.04 0.05 0.06 0.08 0.13 0.19 0.24 0.26 0.34 0.39 0.34 0.29 0.28 0.30 0.33 0.28 0.23 0.16 0.18 0.31 0.28 0.17 0.09 0.05 0.04 0.10 0.11
0.00 0.00 0.00 0.00 0.00 0.00 0.00 0.00 0.00 0.00 0.00 0.00 0.00 0.00 0.00 0.02 0.02 0.04 0.09 0.13 0.19 0.27 0.27 0.24 0.23 0.23 0.29 0.36 0.43 0.49 0.57 0.43 0.34 0.26 0.24 0.32 0.24 0.28 0.37 0.16 0.07 0.08 0.09

GFSMA_prec_precacc12_135.txt.gz
Total_Precipitation_Accumulation
0.24 0.29 0.27 0.27 0.44 0.48 0.45 0.51 0.47 0.46 0.43 0.35 0.25 0.09 0.05 0.10 0.16 0.15 0.06 0.01 0.00 0.00 0.03 0.02 0.06 0.05 0.06 0.06 0.04 0.02 0.10 0.11 0.05 0.02 0.01 0.01 0.02 0.10 0.12 0.05 0.14 0.06 0.00
0.11 0.13 0.20 0.21 0.21 0.29 0.44 0.48 0.50 0.62 0.55 0.58 0.49 0.44 0.44 0.53 0.46 0.41 0.30 0.18 0.12 0.02 0.06 0.05 0.04 0.03 0.05 0.06 0.05 0.05 0.08 0.12 0.09 0.10 0.04 0.01 0.05 0.16 0.23 0.26 0.08 0.03 0.01
0.06 0.05 0.08 0.12 0.16 0.23 0.30 0.43 0.66 0.75 0.70 0.60 0.51 0.53 0.52 0.55 0.79 0.96 0.71 0.61 0.36 0.16 0.05 0.05 0.05 0.03 0.01 0.03 0.05 0.02 0.06 0.08 0.06 0.07 0.08 0.04 0.02 0.08 0.18 0.20 0.23 0.08 0.02
0.02 0.03 0.03 0.05 0.07 0.10 0.12 0.18 0.28 0.50 0.56 0.50 0.50 0.69 0.85 0.96 1.03 1.24 1.38 1.05 0.79 0.55 0.34 0.18 0.10 0.12 0.12 0.08 0.05 0.04 0.04 0.04 0.05 0.07 0.10 0.08 0.05 0.09 0.14 0.16 0.16 0.16 0.10
0.01 0.01 0.01 0.01 0.03 0.05 0.04 0.03 0.11 0.20 0.25 0.31 0.40 0.60 0.88 1.10 1.28 1.26 1.05 0.85 0.66 0.85 0.67 0.47 0.38 0.27 0.14 0.11 0.12 0.09 0.06 0.03 0.03 0.04 0.05 0.03 0.01 0.02 0.05 0.07 0.10 0.12 0.09
0.00 0.00 0.00 0.00 0.00 0.00 0.00 0.02 0.02 0.06 0.12 0.24 0.43 0.48 0.62 0.76 0.85 0.98 0.74 0.85 0.90 1.01 1.29 1.60 1.87 1.26 0.67 0.22 0.09 0.10 0.09 0.06 0.04 0.04 0.04 0.03 0.02 0.01 0.02 0.03 0.04 0.05 0.06
0.00 0.00 0.00 0.00 0.00 0.00 0.00 0.00 0.00 0.01 0.02 0.08 0.27 0.30 0.48 0.91 1.42 1.75 2.22 2.21 2.43 2.43 2.33 1.76 1.33 1.08 0.65 0.29 0.16 0.07 0.05 0.06 0.06 0.05 0.03 0.01 0.03 0.02 0.02 0.03 0.02 0.04 0.06
0.00 0.00 0.00 0.00 0.00 0.00 0.00 0.00 0.00 0.00 0.00 0.03 0.09 0.17 0.34 0.36 0.28 0.19 0.18 0.16 0.12 0.09 0.08 0.08 0.07 0.07 0.08 0.10 0.09 0.16 0.12 0.08 0.08 0.09 0.08 0.02 0.02 0.02 0.02 0.02 0.02 0.03 0.04
0.00 0.00 0.00 0.00 0.00 0.00 0.00 0.00 0.00 0.00 0.00 0.01 0.03 0.05 0.07 0.04 0.02 0.04 0.04 0.02 0.03 0.02 0.01 0.00 0.01 0.02 0.04 0.06 0.12 0.13 0.12 0.10 0.08 0.15 0.12 0.05 0.01 0.01 0.01 0.01 0.01 0.09 0.15
0.00 0.00 0.00 0.00 0.00 0.00 0.00 0.00 0.00 0.01 0.01 0.01 0.01 0.03 0.04 0.06 0.06 0.05 0.04 0.04 0.02 0.02 0.02 0.01 0.00 0.00 0.01 0.01 0.03 0.11 0.12 0.16 0.10 0.12 0.15 0.12 0.07 0.03 0.02 0.00 0.00 0.01 0.09
0.00 0.00 0.00 0.00 0.00 0.00 0.00 0.00 0.00 0.01 0.01 0.01 0.01 0.02 0.04 0.05 0.06 0.09 0.06 0.03 0.06 0.05 0.05 0.04 0.01 0.01 0.01 0.01 0.02 0.02 0.05 0.06 0.08 0.07 0.09 0.11 0.08 0.05 0.03 0.00 0.01 0.02 0.02
0.00 0.00 0.00 0.00 0.00 0.00 0.00 0.00 0.00 0.00 0.00 0.01 0.01 0.02 0.02 0.04 0.03 0.07 0.07 0.03 0.03 0.02 0.04 0.06 0.08 0.04 0.03 0.05 0.06 0.04 0.05 0.05 0.04 0.05 0.06 0.08 0.09 0.10 0.09 0.07 0.04 0.01 0.02
0.00 0.00 0.00 0.00 0.00 0.00 0.00 0.00 0.00 0.00 0.01 0.01 0.01 0.01 0.01 0.02 0.02 0.03 0.03 0.02 0.01 0.00 0.01 0.00 0.02 0.06 0.09 0.13 0.15 0.14 0.07 0.06 0.06 0.08 0.08 0.07 0.07 0.12 0.14 0.12 0.13 0.08 0.04
0.01 0.01 0.01 0.01 0.00 0.00 0.00 0.00 0.00 0.00 0.01 0.01 0.00 0.01 0.01 0.01 0.02 0.03 0.04 0.05 0.03 0.01 0.00 0.00 0.00 0.02 0.07 0.15 0.33 0.46 0.32 0.19 0.13 0.15 0.15 0.15 0.14 0.13 0.16 0.17 0.14 0.09 0.08
0.01 0.01 0.02 0.02 0.01 0.00 0.00 0.01 0.01 0.00 0.00 0.00 0.01 0.00 0.01 0.01 0.01 0.02 0.03 0.05 0.07 0.05 0.01 0.00 0.00 0.00 0.00 0.00 0.01 0.16 0.40 0.51 0.35 0.13 0.11 0.13 0.14 0.16 0.16 0.16 0.14 0.10 0.08
0.00 0.00 0.00 0.00 0.00 0.00 0.00 0.01 0.00 0.00 0.00 0.00 0.00 0.00 0.01 0.01 0.01 0.02 0.04 0.07 0.09 0.09 0.04 0.02 0.01 0.00 0.00 0.00 0.01 0.02 0.04 0.12 0.09 0.06 0.09 0.11 0.09 0.10 0.11 0.14 0.16 0.16 0.13
0.00 0.00 0.00 0.00 0.00 0.00 0.00 0.01 0.01 0.01 0.01 0.01 0.01 0.00 0.02 0.01 0.02 0.03 0.05 0.08 0.09 0.13 0.09 0.03 0.03 0.04 0.03 0.03 0.03 0.05 0.06 0.05 0.07 0.04 0.04 0.07 0.09 0.10 0.09 0.09 0.09 0.10 0.10
0.00 0.00 0.00 0.00 0.00 0.00 0.00 0.01 0.01 0.00 0.00 0.01 0.01 0.01 0.02 0.03 0.03 0.03 0.05 0.07 0.07 0.07 0.08 0.05 0.02 0.03 0.04 0.05 0.06 0.07 0.05 0.04 0.05 0.09 0.08 0.11 0.12 0.08 0.10 0.11 0.10 0.08 0.06
0.00 0.00 0.00 0.00 0.00 0.00 0.00 0.00 0.00 0.00 0.00 0.00 0.01 0.01 0.02 0.01 0.02 0.02 0.03 0.04 0.05 0.07 0.10 0.09 0.04 0.02 0.02 0.05 0.06 0.06 0.07 0.05 0.04 0.04 0.03 0.04 0.06 0.06 0.07 0.10 0.13 0.11 0.08
0.00 0.00 0.00 0.00 0.00 0.00 0.00 0.00 0.00 0.00 0.00 0.00 0.00 0.00 0.01 0.01 0.02 0.01 0.01 0.01 0.01 0.02 0.03 0.06 0.09 0.08 0.06 0.06 0.08 0.10 0.07 0.05 0.04 0.03 0.03 0.02 0.03 0.06 0.06 0.06 0.07 0.10 0.12
0.00 0.00 0.00 0.00 0.00 0.00 0.00 0.00 0.00 0.00 0.00 0.00 0.00 0.00 0.00 0.01 0.02 0.01 0.02 0.02 0.02 0.01 0.03 0.04 0.06 0.08 0.12 0.12 0.10 0.06 0.06 0.10 0.09 0.07 0.06 0.05 0.02 0.02 0.02 0.03 0.04 0.04 0.04
0.00 0.00 0.00 0.00 0.00 0.00 0.00 0.00 0.00 0.00 0.00 0.00 0.00 0.00 0.00 0.00 0.00 0.00 0.01 0.03 0.05 0.06 0.07 0.09 0.11 0.12 0.14 0.17 0.13 0.10 0.08 0.10 0.11 0.04 0.04 0.05 0.04 0.02 0.00 0.00 0.01 0.02 0.03
0.00 0.00 0.00 0.00 0.00 0.00 0.00 0.00 0.00 0.00 0.00 0.00 0.00 0.01 0.00 0.00 0.00 0.00 0.00 0.01 0.02 0.03 0.04 0.05 0.09 0.24 0.26 0.28 0.27 0.19 0.17 0.16 0.09 0.06 0.10 0.08 0.02 0.02 0.01 0.01 0.01 0.02 0.03
0.01 0.00 0.00 0.00 0.00 0.00 0.00 0.00 0.00 0.00 0.00 0.00 0.01 0.01 0.01 0.01 0.00 0.00 0.00 0.00 0.01 0.02 0.04 0.05 0.05 0.10 0.14 0.11 0.11 0.13 0.14 0.19 0.19 0.16 0.30 0.39 0.12 0.04 0.02 0.02 0.03 0.04 0.06
0.00 0.00 0.00 0.00 0.00 0.00 0.00 0.00 0.00 0.00 0.00 0.00 0.00 0.00 0.00 0.00 0.00 0.00 0.00 0.00 0.01 0.02 0.03 0.05 0.07 0.10 0.11 0.12 0.12 0.20 0.31 0.24 0.18 0.12 0.13 0.28 0.27 0.16 0.07 0.04 0.03 0.07 0.07
0.00 0.00 0.00 0.00 0.00 0.00 0.00 0.00 0.00 0.00 0.00 0.00 0.00 0.00 0.00 0.00 0.00 0.00 0.00 0.01 0.01 0.03 0.06 0.07 0.09 0.12 0.16 0.19 0.20 0.32 0.46 0.37 0.30 0.21 0.21 0.30 0.21 0.27 0.36 0.16 0.04 0.06 0.08

GFSMA_prec_precacc12_141.txt.gz
Total_Precipitation_Accumulation
0.15 0.17 0.17 0.18 0.38 0.37 0.34 0.36 0.31 0.28 0.31 0.22 0.23 0.27 0.19 0.14 0.24 0.26 0.21 0.25 0.14 0.12 0.20 0.20 0.18 0.18 0.16 0.07 0.06 0.08 0.06 0.03 0.01 0.00 0.00 0.02 0.00 0.06 0.10 0.02 0.04 0.02 0.00
0.06 0.07 0.07 0.08 0.11 0.16 0.29 0.31 0.38 0.46 0.37 0.47 0.48 0.47 0.48 0.62 0.57 0.58 0.61 0.49 0.52 0.36 0.39 0.33 0.33 0.32 0.29 0.24 0.23 0.20 0.13 0.08 0.05 0.01 0.00 0.02 0.04 0.03 0.05 0.10 0.03 0.02 0.00
0.02 0.01 0.01 0.01 0.02 0.03 0.09 0.22 0.45 0.52 0.51 0.49 0.48 0.55 0.52 0.54 0.84 1.13 1.21 1.39 1.72 1.60 1.11 0.85 0.70 0.68 0.72 0.68 0.60 0.52 0.28 0.16 0.10 0.06 0.01 0.00 0.02 0.00 0.01 0.01 0.05 0.04 0.00
0.00 0.01 0.00 0.00 0.00 0.00 0.00 0.02 0.05 0.16 0.25 0.31 0.41 0.64 0.83 0.92 0.99 1.16 1.35 1.13 1.09 1.01 0.82 0.81 0.81 1.16 1.53 1.51 1.25 0.92 0.86 0.72 0.25 0.13 0.08 0.03 0.00 0.04 0.04 0.01 0.01 0.08 0.09
0.00 0.00 0.00 0.00 0.00 0.00 0.00 0.00 0.00 0.01 0.01 0.04 0.13 0.42 0.80 1.07 1.18 1.09 0.94 0.70 0.56 0.83 0.90 0.61 0.55 0.62 0.87 1.29 1.66 1.60 1.10 0.86 0.29 0.10 0.09 0.08 0.04 0.01 0.01 0.01 0.05 0.04 0.10
0.00 0.00 0.00 0.00 0.00 0.00 0.00 0.00 0.00 0.00 0.01 0.00 0.01 0.03 0.09 0.27 0.42 0.47 0.32 0.47 0.59 0.77 1.17 1.54 1.94 1.80 1.46 1.23 1.04 0.93 0.56 0.30 0.19 0.18 0.21 0.20 0.20 0.19 0.08 0.02 0.04 0.06 0.05
0.00 0.00 0.00 0.00 0.00 0.00 0.00 0.00 0.00 0.00 0.00 0.00 0.01 0.00 0.00 0.02 0.03 0.13 0.39 1.21 1.92 2.21 2.17 1.68 1.30 1.09 0.82 0.84 0.95 0.78 0.52 0.30 0.20 0.16 0.15 0.15 0.20 0.22 0.21 0.13 0.07 0.08 0.08
0.00 0.00 0.00 0.00 0.00 0.00 0.00 0.00 0.00 0.00 0.00 0.00 0.00 0.01 0.00 0.00 0.00 0.00 0.02 0.05 0.08 0.09 0.08 0.08 0.08 0.07 0.08 0.11 0.15 0.27 0.23 0.27 0.24 0.25 0.34 0.28 0.22 0.18 0.17 0.17 0.20 0.19 0.19
0.00 0.00 0.00 0.00 0.00 0.00 0.00 0.00 0.00 0.00 0.00 0.00 0.00 0.00 0.01 0.01 0.01 0.01 0.02 0.01 0.03 0.02 0.01 0.00 0.01 0.01 0.01 0.04 0.12 0.13 0.13 0.14 0.18 0.28 0.35 0.39 0.30 0.23 0.17 0.14 0.13 0.21 0.23
0.00 0.00 0.00 0.00 0.00 0.00 0.00 0.00 0.00 0.00 0.00 0.00 0.00 0.00 0.00 0.01 0.01 0.01 0.02 0.02 0.02 0.02 0.02 0.01 0.00 0.01 0.01 0.01 0.04 0.11 0.16 0.18 0.13 0.16 0.24 0.27 0.26 0.27 0.27 0.18 0.12 0.09 0.12
0.00 0.00 0.00 0.00 0.00 0.00 0.00 0.00 0.00 0.00 0.00 0.01 0.01 0.01 0.01 0.00 0.01 0.02 0.01 0.00 0.02 0.03 0.05 0.04 0.01 0.01 0.00 0.01 0.02 0.03 0.05 0.09 0.18 0.17 0.16 0.19 0.21 0.20 0.24 0.17 0.12 0.09 0.10
0.00 0.00 0.00 0.00 0.00 0.00 0.00 0.00 0.00 0.00 0.00 0.00 0.01 0.01 0.02 0.03 0.02 0.03 0.02 0.00 0.00 0.01 0.03 0.05 0.07 0.04 0.02 0.04 0.06 0.07 0.13 0.11 0.09 0.12 0.11 0.13 0.16 0.19 0.23 0.26 0.19 0.13 0.10
0.00 0.00 0.00 0.00 0.00 0.00 0.00 0.00 0.00 0.00 0.00 0.00 0.00 0.00 0.01 0.01 0.02 0.02 0.02 0.01 0.00 0.00 0.00 0.00 0.02 0.05 0.08 0.12 0.14 0.15 0.08 0.06 0.07 0.10 0.12 0.11 0.12 0.17 0.19 0.20 0.26 0.16 0.15
0.00 0.00 0.00 0.00 0.00 0.00 0.00 0.00 0.00 0.00 0.00 0.00 0.00 0.00 0.00 0.00 0.01 0.02 0.02 0.01 0.00 0.00 0.00 0.00 0.00 0.02 0.07 0.15 0.33 0.46 0.32 0.19 0.15 0.18 0.19 0.21 0.21 0.21 0.28 0.26 0.21 0.17 0.19
0.00 0.00 0.00 0.00 0.00 0.00 0.00 0.01 0.00 0.00 0.00 0.00 0.00 0.00 0.01 0.01 0.02 0.02 0.02 0.02 0.03 0.02 0.00 0.00 0.00 0.00 0.00 0.00 0.02 0.16 0.39 0.50 0.51 0.32 0.21 0.18 0.19 0.25 0.31 0.44 0.32 0.19 0.14
0.00 0.00 0.00 0.00 0.00 0.00 0.00 0.01 0.01 0.01 0.01 0.01 0.01 0.02 0.02 0.02 0.03 0.03 0.02 0.03 0.04 0.04 0.02 0.01 0.00 0.00 0.00 0.00 0.01 0.01 0.03 0.11 0.12 0.18 0.21 0.24 0.20 0.18 0.20 0.30 0.72 0.92 0.60
0.00 0.00 0.00 0.00 0.00 0.00 0.00 0.01 0.01 0.02 0.03 0.05 0.02 0.04 0.06 0.06 0.07 0.06 0.04 0.03 0.04 0.05 0.03 0.01 0.00 0.01 0.00 0.01 0.01 0.02 0.03 0.02 0.05 0.05 0.09 0.13 0.20 0.25 0.26 0.22 0.26 0.56 1.20
0.00 0.00 0.00 0.00 0.00 0.00 0.00 0.00 0.00 0.00 0.00 0.01 0.01 0.02 0.03 0.03 0.06 0.06 0.06 0.05 0.05 0.05 0.05 0.01 0.00 0.01 0.01 0.00 0.01 0.01 0.01 0.01 0.02 0.07 0.08 0.10 0.15 0.16 0.19 0.28 0.29 0.23 0.33
0.00 0.00 0.00 0.00 0.00 0.00 0.00 0.00 0.00 0.00 0.00 0.00 0.00 0.00 0.00 0.00 0.01 0.01 0.02 0.02 0.02 0.02 0.04 0.03 0.01 0.00 0.00 0.00 0.00 0.01 0.01 0.01 0.01 0.03 0.03 0.04 0.05 0.07 0.11 0.16 0.30 0.36 0.25
0.00 0.00 0.00 0.00 0.00 0.00 0.00 0.00 0.00 0.00 0.00 0.00 0.00 0.00 0.00 0.00 0.01 0.01 0.00 0.01 0.00 0.01 0.01 0.01 0.02 0.01 0.00 0.00 0.00 0.00 0.00 0.01 0.01 0.02 0.02 0.02 0.03 0.05 0.05 0.05 0.09 0.16 0.20
0.00 0.00 0.00 0.00 0.00 0.00 0.00 0.00 0.00 0.00 0.00 0.00 0.00 0.00 0.00 0.00 0.00 0.01 0.01 0.03 0.01 0.00 0.01 0.00 0.01 0.01 0.01 0.01 0.01 0.01 0.00 0.00 0.00 0.01 0.04 0.03 0.02 0.02 0.01 0.02 0.02 0.04 0.06
0.00 0.00 0.00 0.00 0.00 0.00 0.00 0.00 0.00 0.00 0.00 0.00 0.00 0.00 0.00 0.00 0.00 0.00 0.00 0.01 0.03 0.03 0.02 0.02 0.01 0.02 0.03 0.03 0.02 0.01 0.01 0.00 0.00 0.00 0.02 0.01 0.02 0.01 0.00 0.00 0.01 0.01 0.01
0.00 0.00 0.00 0.00 0.00 0.00 0.00 0.00 0.00 0.00 0.00 0.00 0.00 0.00 0.00 0.00 0.00 0.00 0.00 0.00 0.01 0.01 0.02 0.04 0.04 0.06 0.06 0.06 0.03 0.01 0.01 0.01 0.01 0.02 0.00 0.01 0.01 0.00 0.00 0.00 0.00 0.00 0.01
0.00 0.00 0.00 0.00 0.00 0.00 0.00 0.00 0.00 0.00 0.00 0.00 0.00 0.00 0.00 0.00 0.00 0.00 0.00 0.00 0.00 0.00 0.00 0.01 0.02 0.03 0.05 0.03 0.02 0.02 0.00 0.00 0.00 0.02 0.00 0.03 0.03 0.02 0.01 0.00 0.01 0.01 0.02
0.00 0.00 0.00 0.00 0.00 0.00 0.00 0.00 0.00 0.00 0.00 0.00 0.00 0.00 0.00 0.00 0.00 0.00 0.00 0.00 0.00 0.00 0.00 0.00 0.00 0.00 0.00 0.01 0.01 0.01 0.02 0.01 0.00 0.00 0.00 0.02 0.00 0.01 0.01 0.02 0.01 0.04 0.05
0.00 0.00 0.00 0.00 0.00 0.00 0.00 0.00 0.00 0.00 0.00 0.00 0.00 0.00 0.00 0.00 0.00 0.00 0.00 0.00 0.00 0.00 0.00 0.00 0.00 0.00 0.00 0.00 0.00 0.01 0.03 0.04 0.03 0.02 0.00 0.03 0.00 0.01 0.03 0.02 0.01 0.03 0.05

GFSMA_prec_precacc12_144.txt.gz
Total_Precipitation_Accumulation
0.07 0.09 0.10 0.09 0.17 0.14 0.14 0.18 0.17 0.24 0.30 0.22 0.22 0.27 0.18 0.11 0.20 0.26 0.22 0.25 0.19 0.15 0.20 0.20 0.18 0.18 0.16 0.09 0.09 0.14 0.15 0.17 0.16 0.13 0.09 0.07 0.07 0.04 0.06 0.02 0.04 0.02 0.00
0.01 0.01 0.02 0.03 0.04 0.03 0.02 0.03 0.06 0.16 0.22 0.38 0.45 0.46 0.48 0.60 0.55 0.57 0.60 0.46 0.49 0.38 0.47 0.41 0.36 0.36 0.35 0.34 0.32 0.28 0.31 0.28 0.24 0.22 0.18 0.16 0.17 0.10 0.09 0.09 0.03 0.01 0.00
0.00 0.00 0.00 0.00 0.00 0.00 0.00 0.00 0.02 0.06 0.09 0.12 0.20 0.33 0.40 0.49 0.81 1.04 1.17 1.37 1.69 1.57 1.09 0.88 0.78 0.76 0.84 0.79 0.69 0.67 0.58 0.60 0.49 0.34 0.22 0.18 0.14 0.08 0.04 0.03 0.05 0.04 0.01
0.00 0.01 0.00 0.00 0.00 0.00 0.00 0.00 0.00 0.00 0.00 0.01 0.02 0.08 0.33 0.44 0.59 0.98 1.25 1.11 1.03 0.95 0.72 0.75 0.80 1.16 1.53 1.49 1.25 0.98 0.99 1.06 0.77 0.43 0.22 0.11 0.04 0.02 0.03 0.02 0.05 0.14 0.07
0.00 0.00 0.00 0.00 0.00 0.00 0.00 0.00 0.00 0.00 0.00 0.00 0.00 0.00 0.01 0.03 0.11 0.50 0.66 0.51 0.37 0.58 0.67 0.44 0.44 0.56 0.86 1.26 1.64 1.63 1.20 1.02 0.72 0.31 0.16 0.13 0.13 0.14 0.10 0.07 0.07 0.10 0.19
0.00 0.00 0.00 0.00 0.00 0.00 0.00 0.00 0.00 0.00 0.00 0.00 0.00 0.00 0.00 0.00 0.00 0.00 0.00 0.01 0.08 0.36 0.84 1.31 1.79 1.70 1.41 1.20 1.03 0.96 0.65 0.34 0.20 0.19 0.22 0.22 0.26 0.33 0.22 0.16 0.15 0.08 0.09
0.00 0.00 0.00 0.00 0.00 0.00 0.00 0.00 0.00 0.00 0.00 0.00 0.00 0.00 0.00 0.00 0.00 0.00 0.00 0.01 0.07 0.43 0.99 1.09 1.12 1.04 0.78 0.79 0.92 0.78 0.51 0.35 0.24 0.19 0.20 0.20 0.25 0.31 0.33 0.29 0.21 0.17 0.14
0.00 0.00 0.00 0.00 0.00 0.00 0.00 0.00 0.00 0.00 0.00 0.00 0.00 0.00 0.00 0.00 0.00 0.00 0.00 0.00 0.01 0.01 0.02 0.06 0.08 0.07 0.06 0.08 0.14 0.27 0.26 0.33 0.29 0.32 0.46 0.40 0.33 0.30 0.28 0.27 0.31 0.28 0.35
0.00 0.00 0.00 0.00 0.00 0.00 0.00 0.00 0.00 0.00 0.00 0.00 0.00 0.00 0.00 0.00 0.00 0.00 0.00 0.00 0.00 0.00 0.01 0.01 0.01 0.01 0.01 0.01 0.03 0.07 0.09 0.10 0.17 0.29 0.41 0.48 0.34 0.30 0.27 0.25 0.24 0.35 0.37
0.00 0.00 0.00 0.00 0.00 0.00 0.00 0.00 0.00 0.00 0.00 0.00 0.00 0.00 0.00 0.01 0.01 0.00 0.00 0.00 0.00 0.01 0.01 0.01 0.00 0.01 0.02 0.02 0.03 0.06 0.10 0.10 0.08 0.16 0.24 0.28 0.27 0.29 0.30 0.25 0.20 0.17 0.21
0.00 0.00 0.00 0.00 0.00 0.00 0.00 0.00 0.00 0.00 0.00 0.01 0.01 0.01 0.01 0.00 0.01 0.01 0.00 0.00 0.00 0.00 0.00 0.01 0.00 0.00 0.00 0.01 0.02 0.03 0.03 0.07 0.15 0.16 0.16 0.18 0.21 0.20 0.25 0.17 0.14 0.11 0.12
0.00 0.00 0.00 0.00 0.00 0.00 0.00 0.00 0.00 0.00 0.00 0.00 0.00 0.01 0.01 0.02 0.02 0.02 0.01 0.00 0.00 0.00 0.00 0.00 0.00 0.01 0.01 0.03 0.05 0.07 0.10 0.07 0.06 0.10 0.11 0.13 0.16 0.18 0.23 0.26 0.19 0.14 0.11
0.00 0.00 0.00 0.00 0.00 0.00 0.00 0.00 0.00 0.00 0.00 0.00 0.00 0.00 0.00 0.01 0.01 0.02 0.01 0.00 0.00 0.00 0.00 0.00 0.00 0.00 0.00 0.04 0.11 0.12 0.07 0.06 0.05 0.08 0.10 0.10 0.12 0.13 0.13 0.17 0.25 0.19 0.19
0.00 0.00 0.00 0.00 0.00 0.00 0.00 0.00 0.00 0.00 0.00 0.00 0.00 0.00 0.00 0.00 0.01 0.02 0.02 0.01 0.00 0.00 0.00 0.00 0.00 0.00 0.00 0.03 0.24 0.38 0.28 0.17 0.13 0.14 0.14 0.18 0.20 0.18 0.21 0.20 0.18 0.19 0.23
0.00 0.00 0.00 0.00 0.00 0.00 0.00 0.00 0.00 0.00 0.00 0.00 0.00 0.00 0.01 0.01 0.02 0.02 0.03 0.03 0.05 0.02 0.00 0.00 0.00 0.00 0.00 0.00 0.01 0.14 0.36 0.45 0.47 0.30 0.19 0.16 0.17 0.22 0.28 0.41 0.31 0.21 0.19
0.00 0.00 0.00 0.00 0.00 0.00 0.00 0.01 0.01 0.01 0.01 0.01 0.01 0.02 0.02 0.02 0.03 0.03 0.04 0.05 0.06 0.06 0.03 0.01 0.00 0.00 0.00 0.00 0.00 0.00 0.01 0.04 0.07 0.16 0.20 0.22 0.19 0.17 0.17 0.28 0.70 0.88 0.59
0.00 0.00 0.00 0.00 0.00 0.00 0.00 0.01 0.01 0.02 0.03 0.05 0.02 0.04 0.05 0.05 0.06 0.06 0.08 0.09 0.09 0.08 0.05 0.02 0.00 0.00 0.00 0.00 0.00 0.00 0.00 0.01 0.01 0.04 0.07 0.11 0.19 0.25 0.27 0.22 0.25 0.57 1.20
0.00 0.00 0.00 0.00 0.00 0.00 0.00 0.00 0.00 0.00 0.00 0.01 0.01 0.01 0.01 0.02 0.04 0.06 0.08 0.11 0.12 0.11 0.09 0.05 0.01 0.00 0.00 0.00 0.00 0.00 0.00 0.00 0.00 0.01 0.02 0.05 0.10 0.14 0.18 0.28 0.29 0.22 0.32
0.00 0.00 0.00 0.00 0.00 0.00 0.00 0.00 0.00 0.00 0.00 0.00 0.00 0.00 0.00 0.00 0.01 0.01 0.01 0.01 0.01 0.01 0.02 0.02 0.01 0.00 0.00 0.00 0.00 0.00 0.00 0.00 0.00 0.00 0.00 0.01 0.02 0.05 0.09 0.14 0.30 0.37 0.28
0.00 0.00 0.00 0.00 0.00 0.00 0.00 0.00 0.00 0.00 0.00 0.00 0.00 0.00 0.00 0.00 0.01 0.01 0.01 0.01 0.00 0.00 0.00 0.00 0.00 0.00 0.00 0.00 0.00 0.00 0.00 0.00 0.00 0.00 0.00 0.00 0.01 0.02 0.03 0.06 0.10 0.16 0.24
0.00 0.00 0.00 0.00 0.00 0.00 0.00 0.00 0.00 0.00 0.00 0.00 0.00 0.00 0.00 0.00 0.00 0.01 0.01 0.02 0.01 0.00 0.00 0.00 0.00 0.00 0.00 0.00 0.00 0.00 0.00 0.00 0.00 0.00 0.00 0.00 0.00 0.00 0.02 0.03 0.03 0.06 0.08
0.00 0.00 0.00 0.00 0.00 0.00 0.00 0.00 0.00 0.00 0.00 0.00 0.00 0.00 0.00 0.00 0.00 0.00 0.00 0.01 0.02 0.02 0.02 0.01 0.01 0.01 0.02 0.02 0.01 0.00 0.00 0.00 0.00 0.00 0.00 0.00 0.00 0.00 0.00 0.00 0.01 0.01 0.01
0.00 0.00 0.00 0.00 0.00 0.00 0.00 0.00 0.00 0.00 0.00 0.00 0.00 0.00 0.00 0.00 0.00 0.00 0.00 0.00 0.00 0.01 0.02 0.03 0.02 0.05 0.05 0.05 0.02 0.01 0.00 0.00 0.01 0.02 0.00 0.00 0.00 0.00 0.00 0.00 0.00 0.00 0.01
0.00 0.00 0.00 0.00 0.00 0.00 0.00 0.00 0.00 0.00 0.00 0.00 0.00 0.00 0.00 0.00 0.00 0.00 0.00 0.00 0.00 0.00 0.00 0.00 0.01 0.01 0.03 0.02 0.01 0.01 0.00 0.00 0.00 0.02 0.00 0.00 0.00 0.00 0.00 0.00 0.00 0.00 0.01
0.00 0.00 0.00 0.00 0.00 0.00 0.00 0.00 0.00 0.00 0.00 0.00 0.00 0.00 0.00 0.00 0.00 0.00 0.00 0.00 0.00 0.00 0.00 0.00 0.00 0.00 0.00 0.00 0.00 0.00 0.01 0.00 0.00 0.00 0.00 0.01 0.00 0.00 0.00 0.00 0.00 0.00 0.00
0.00 0.00 0.00 0.00 0.00 0.00 0.00 0.00 0.00 0.00 0.00 0.00 0.00 0.00 0.00 0.00 0.00 0.00 0.00 0.00 0.00 0.00 0.00 0.00 0.00 0.00 0.00 0.00 0.00 0.00 0.01 0.02 0.02 0.01 0.00 0.02 0.00 0.01 0.01 0.00 0.00 0.00 0.00

GFSMA_prec_precacc12_147.txt.gz
Total_Precipitation_Accumulation
0.00 0.02 0.01 0.01 0.01 0.00 0.00 0.00 0.00 0.01 0.05 0.04 0.09 0.22 0.15 0.05 0.07 0.12 0.17 0.25 0.21 0.16 0.17 0.18 0.19 0.29 0.34 0.20 0.16 0.21 0.29 0.30 0.23 0.16 0.11 0.15 0.23 0.18 0.15 0.05 0.01 0.00 0.00
0.00 0.01 0.01 0.00 0.00 0.00 0.00 0.00 0.00 0.00 0.00 0.01 0.05 0.10 0.13 0.14 0.14 0.17 0.31 0.31 0.40 0.37 0.41 0.37 0.36 0.45 0.60 0.58 0.56 0.45 0.43 0.35 0.29 0.26 0.20 0.20 0.27 0.23 0.20 0.20 0.12 0.07 0.02
0.00 0.00 0.00 0.00 0.00 0.00 0.00 0.00 0.00 0.00 0.00 0.00 0.00 0.03 0.06 0.10 0.14 0.20 0.50 0.78 1.36 1.46 1.06 0.84 0.74 0.74 0.89 0.91 0.83 0.77 0.73 0.81 0.67 0.40 0.24 0.19 0.17 0.14 0.11 0.13 0.14 0.13 0.06
0.00 0.00 0.00 0.00 0.00 0.00 0.00 0.00 0.00 0.00 0.00 0.00 0.00 0.00 0.01 0.02 0.04 0.06 0.09 0.14 0.31 0.46 0.49 0.64 0.72 1.05 1.43 1.46 1.27 1.03 1.03 1.13 0.84 0.48 0.24 0.11 0.04 0.03 0.08 0.10 0.12 0.23 0.19
0.00 0.00 0.00 0.00 0.00 0.00 0.00 0.00 0.00 0.00 0.00 0.00 0.00 0.00 0.00 0.00 0.00 0.00 0.00 0.00 0.00 0.03 0.27 0.18 0.17 0.35 0.73 1.17 1.55 1.59 1.21 1.03 0.73 0.31 0.16 0.14 0.13 0.16 0.15 0.13 0.17 0.20 0.28
0.00 0.00 0.00 0.00 0.00 0.00 0.00 0.00 0.00 0.00 0.00 0.00 0.00 0.00 0.00 0.00 0.00 0.00 0.00 0.00 0.00 0.00 0.01 0.00 0.11 0.57 0.81 1.01 0.96 0.89 0.60 0.31 0.20 0.17 0.20 0.21 0.26 0.33 0.25 0.20 0.22 0.24 0.26
0.00 0.00 0.00 0.00 0.00 0.00 0.00 0.00 0.00 0.00 0.00 0.00 0.00 0.00 0.00 0.00 0.00 0.00 0.00 0.00 0.00 0.00 0.01 0.01 0.02 0.06 0.21 0.60 0.82 0.75 0.56 0.38 0.25 0.21 0.20 0.20 0.23 0.30 0.37 0.38 0.31 0.27 0.25
0.00 0.00 0.00 0.00 0.00 0.00 0.00 0.00 0.00 0.00 0.00 0.00 0.00 0.00 0.00 0.00 0.00 0.00 0.00 0.00 0.00 0.01 0.00 0.01 0.02 0.02 0.04 0.08 0.15 0.22 0.22 0.29 0.25 0.28 0.42 0.40 0.32 0.32 0.37 0.39 0.47 0.44 0.46
0.00 0.00 0.00 0.00 0.00 0.00 0.00 0.00 0.00 0.00 0.00 0.00 0.00 0.00 0.00 0.00 0.00 0.00 0.00 0.00 0.00 0.00 0.00 0.00 0.00 0.00 0.00 0.01 0.04 0.05 0.08 0.08 0.11 0.17 0.30 0.46 0.38 0.32 0.30 0.29 0.31 0.44 0.47
0.00 0.00 0.00 0.00 0.00 0.00 0.00 0.00 0.00 0.00 0.00 0.00 0.00 0.00 0.00 0.01 0.01 0.00 0.00 0.00 0.00 0.00 0.00 0.01 0.00 0.01 0.01 0.02 0.03 0.04 0.07 0.05 0.04 0.06 0.11 0.17 0.23 0.30 0.31 0.27 0.20 0.18 0.24
0.00 0.00 0.00 0.00 0.00 0.00 0.00 0.00 0.00 0.00 0.00 0.00 0.01 0.00 0.00 0.00 0.01 0.01 0.00 0.00 0.00 0.00 0.00 0.00 0.00 0.00 0.00 0.00 0.01 0.02 0.01 0.04 0.11 0.12 0.10 0.10 0.13 0.16 0.26 0.24 0.19 0.12 0.12
0.00 0.00 0.00 0.00 0.00 0.00 0.00 0.00 0.00 0.00 0.00 0.00 0.00 0.00 0.00 0.01 0.01 0.01 0.01 0.00 0.00 0.00 0.00 0.00 0.00 0.00 0.00 0.00 0.01 0.03 0.07 0.06 0.05 0.07 0.07 0.08 0.08 0.10 0.15 0.21 0.21 0.17 0.11
0.00 0.00 0.00 0.00 0.00 0.00 0.00 0.00 0.00 0.00 0.00 0.00 0.00 0.00 0.00 0.00 0.01 0.01 0.01 0.00 0.00 0.00 0.00 0.00 0.00 0.00 0.00 0.00 0.00 0.01 0.00 0.00 0.01 0.03 0.04 0.05 0.07 0.07 0.07 0.11 0.16 0.13 0.18
0.00 0.00 0.00 0.00 0.00 0.00 0.00 0.00 0.00 0.00 0.00 0.00 0.00 0.00 0.00 0.00 0.01 0.02 0.02 0.01 0.01 0.00 0.00 0.00 0.00 0.00 0.00 0.00 0.00 0.00 0.00 0.00 0.02 0.03 0.04 0.06 0.08 0.09 0.13 0.11 0.10 0.13 0.18
0.00 0.00 0.00 0.00 0.00 0.00 0.00 0.00 0.00 0.00 0.00 0.00 0.00 0.00 0.01 0.01 0.02 0.02 0.02 0.03 0.06 0.03 0.00 0.01 0.00 0.00 0.00 0.00 0.00 0.00 0.00 0.00 0.17 0.20 0.11 0.09 0.08 0.10 0.16 0.29 0.21 0.15 0.15
0.00 0.00 0.00 0.00 0.00 0.00 0.00 0.00 0.01 0.01 0.01 0.01 0.01 0.02 0.02 0.02 0.03 0.03 0.03 0.05 0.06 0.07 0.04 0.04 0.03 0.02 0.00 0.00 0.00 0.00 0.00 0.00 0.03 0.12 0.15 0.16 0.14 0.12 0.11 0.18 0.58 0.78 0.51
0.00 0.00 0.00 0.00 0.00 0.00 0.00 0.00 0.01 0.01 0.02 0.04 0.02 0.04 0.05 0.05 0.06 0.06 0.07 0.09 0.10 0.10 0.10 0.06 0.05 0.03 0.01 0.00 0.00 0.00 0.00 0.00 0.01 0.03 0.06 0.09 0.13 0.18 0.20 0.16 0.18 0.48 1.14
0.00 0.00 0.00 0.00 0.00 0.00 0.00 0.00 0.00 0.00 0.00 0.01 0.00 0.01 0.01 0.01 0.04 0.05 0.08 0.10 0.11 0.10 0.12 0.10 0.06 0.02 0.01 0.00 0.00 0.00 0.00 0.00 0.00 0.01 0.01 0.03 0.07 0.10 0.12 0.19 0.21 0.18 0.29
0.00 0.00 0.00 0.00 0.00 0.00 0.00 0.00 0.00 0.00 0.00 0.00 0.00 0.00 0.00 0.00 0.00 0.01 0.00 0.01 0.01 0.00 0.01 0.01 0.02 0.01 0.01 0.00 0.00 0.00 0.00 0.00 0.00 0.00 0.00 0.01 0.02 0.03 0.06 0.08 0.21 0.29 0.23
0.00 0.00 0.00 0.00 0.00 0.00 0.00 0.00 0.00 0.00 0.00 0.00 0.00 0.00 0.00 0.00 0.01 0.01 0.00 0.01 0.00 0.01 0.00 0.00 0.00 0.00 0.00 0.00 0.00 0.00 0.00 0.00 0.00 0.00 0.00 0.00 0.01 0.02 0.02 0.03 0.04 0.08 0.15
0.00 0.00 0.00 0.00 0.00 0.00 0.00 0.00 0.00 0.00 0.00 0.00 0.00 0.00 0.00 0.00 0.00 0.01 0.01 0.01 0.01 0.00 0.00 0.00 0.00 0.00 0.00 0.00 0.00 0.00 0.00 0.00 0.00 0.00 0.00 0.00 0.00 0.00 0.01 0.01 0.01 0.03 0.05
0.00 0.00 0.00 0.00 0.00 0.00 0.00 0.00 0.00 0.00 0.00 0.00 0.00 0.00 0.00 0.00 0.00 0.00 0.00 0.01 0.01 0.01 0.01 0.01 0.01 0.01 0.01 0.01 0.00 0.00 0.00 0.00 0.00 0.00 0.00 0.00 0.00 0.00 0.00 0.00 0.00 0.00 0.00
0.00 0.00 0.00 0.00 0.00 0.00 0.00 0.00 0.00 0.00 0.00 0.00 0.00 0.00 0.00 0.00 0.00 0.00 0.00 0.00 0.00 0.00 0.01 0.01 0.01 0.03 0.03 0.03 0.01 0.00 0.00 0.00 0.01 0.02 0.00 0.00 0.00 0.00 0.00 0.00 0.00 0.00 0.00
0.00 0.00 0.00 0.00 0.00 0.00 0.00 0.00 0.00 0.00 0.00 0.00 0.00 0.00 0.00 0.00 0.00 0.00 0.00 0.00 0.00 0.00 0.00 0.00 0.00 0.01 0.02 0.01 0.01 0.01 0.00 0.00 0.01 0.02 0.00 0.00 0.00 0.00 0.00 0.00 0.00 0.00 0.00
0.00 0.00 0.00 0.00 0.00 0.00 0.00 0.00 0.00 0.00 0.00 0.00 0.01 0.00 0.00 0.00 0.00 0.00 0.00 0.00 0.00 0.00 0.00 0.00 0.00 0.00 0.00 0.00 0.00 0.00 0.01 0.00 0.00 0.00 0.00 0.01 0.00 0.00 0.00 0.00 0.00 0.00 0.00
0.00 0.00 0.00 0.00 0.00 0.00 0.00 0.00 0.00 0.00 0.00 0.00 0.00 0.00 0.00 0.00 0.00 0.00 0.00 0.00 0.00 0.00 0.00 0.00 0.00 0.00 0.00 0.00 0.00 0.00 0.01 0.01 0.01 0.00 0.00 0.01 0.00 0.00 0.00 0.00 0.00 0.00 0.00

GFSMA_prec_precacc12_150.txt.gz
Total_Precipitation_Accumulation
0.00 0.00 0.00 0.00 0.00 0.00 0.00 0.00 0.00 0.00 0.00 0.00 0.01 0.02 0.01 0.00 0.00 0.01 0.06 0.07 0.10 0.12 0.04 0.05 0.14 0.40 0.42 0.25 0.20 0.29 0.34 0.34 0.26 0.19 0.12 0.16 0.24 0.20 0.17 0.09 0.06 0.01 0.00
0.00 0.00 0.00 0.00 0.00 0.00 0.00 0.00 0.00 0.00 0.00 0.00 0.00 0.00 0.02 0.03 0.00 0.00 0.00 0.02 0.07 0.14 0.17 0.16 0.16 0.31 0.58 0.63 0.62 0.49 0.47 0.36 0.29 0.28 0.24 0.21 0.27 0.23 0.20 0.20 0.15 0.13 0.07
0.00 0.00 0.00 0.00 0.00 0.00 0.00 0.00 0.00 0.00 0.00 0.00 0.00 0.00 0.00 0.00 0.01 0.01 0.03 0.05 0.12 0.15 0.12 0.11 0.13 0.27 0.75 0.83 0.79 0.78 0.77 0.86 0.73 0.45 0.26 0.21 0.17 0.14 0.11 0.13 0.14 0.13 0.09
0.00 0.00 0.00 0.00 0.00 0.00 0.00 0.00 0.00 0.00 0.00 0.00 0.00 0.00 0.00 0.00 0.00 0.00 0.00 0.00 0.01 0.02 0.02 0.02 0.01 0.15 0.79 1.03 1.06 0.95 1.01 1.13 0.87 0.56 0.32 0.20 0.12 0.09 0.12 0.12 0.12 0.23 0.19
0.00 0.00 0.00 0.00 0.00 0.00 0.00 0.00 0.00 0.00 0.00 0.00 0.00 0.00 0.00 0.00 0.00 0.00 0.00 0.00 0.00 0.00 0.00 0.02 0.01 0.02 0.19 0.54 1.00 1.36 1.11 0.99 0.76 0.35 0.23 0.22 0.21 0.19 0.18 0.19 0.19 0.20 0.29
0.00 0.00 0.00 0.00 0.00 0.00 0.00 0.00 0.00 0.00 0.00 0.00 0.00 0.00 0.00 0.00 0.00 0.00 0.00 0.00 0.00 0.00 0.00 0.00 0.01 0.02 0.05 0.06 0.06 0.20 0.38 0.30 0.22 0.20 0.22 0.24 0.27 0.35 0.28 0.23 0.24 0.24 0.26
0.00 0.00 0.00 0.00 0.00 0.00 0.00 0.00 0.00 0.00 0.00 0.00 0.00 0.00 0.00 0.00 0.00 0.00 0.00 0.00 0.00 0.00 0.01 0.01 0.01 0.01 0.04 0.07 0.06 0.07 0.25 0.32 0.21 0.18 0.18 0.20 0.18 0.25 0.34 0.38 0.35 0.32 0.28
0.00 0.00 0.00 0.00 0.00 0.00 0.00 0.00 0.00 0.00 0.00 0.00 0.00 0.00 0.00 0.00 0.00 0.00 0.00 0.00 0.00 0.00 0.00 0.01 0.02 0.02 0.04 0.07 0.14 0.18 0.14 0.16 0.13 0.16 0.25 0.31 0.26 0.28 0.35 0.37 0.44 0.43 0.47
0.00 0.00 0.00 0.00 0.00 0.00 0.00 0.00 0.00 0.00 0.00 0.00 0.00 0.00 0.00 0.00 0.00 0.00 0.00 0.00 0.00 0.00 0.00 0.00 0.00 0.00 0.00 0.01 0.04 0.06 0.11 0.09 0.04 0.07 0.16 0.29 0.30 0.24 0.25 0.27 0.33 0.41 0.41
0.00 0.00 0.00 0.00 0.00 0.00 0.00 0.00 0.00 0.00 0.00 0.00 0.00 0.00 0.00 0.01 0.01 0.00 0.00 0.00 0.00 0.00 0.00 0.00 0.00 0.00 0.01 0.01 0.02 0.04 0.08 0.07 0.09 0.07 0.04 0.09 0.18 0.22 0.20 0.21 0.20 0.19 0.24
0.00 0.00 0.00 0.00 0.00 0.00 0.00 0.00 0.00 0.00 0.00 0.00 0.00 0.00 0.00 0.00 0.01 0.01 0.00 0.00 0.00 0.00 0.00 0.00 0.00 0.00 0.00 0.00 0.00 0.01 0.01 0.02 0.06 0.09 0.08 0.06 0.06 0.11 0.18 0.17 0.16 0.16 0.13
0.00 0.00 0.00 0.00 0.00 0.00 0.00 0.00 0.00 0.00 0.00 0.00 0.00 0.00 0.00 0.01 0.01 0.01 0.01 0.00 0.00 0.00 0.00 0.00 0.00 0.00 0.00 0.00 0.00 0.00 0.00 0.01 0.01 0.02 0.03 0.04 0.03 0.04 0.07 0.11 0.15 0.22 0.21
0.00 0.00 0.00 0.00 0.00 0.00 0.00 0.00 0.00 0.00 0.00 0.00 0.00 0.00 0.00 0.00 0.01 0.00 0.00 0.00 0.00 0.00 0.00 0.00 0.00 0.00 0.00 0.00 0.00 0.00 0.00 0.00 0.00 0.00 0.01 0.01 0.03 0.03 0.03 0.05 0.06 0.09 0.16
0.00 0.00 0.00 0.00 0.00 0.00 0.00 0.00 0.00 0.00 0.00 0.00 0.00 0.00 0.00 0.01 0.01 0.02 0.02 0.02 0.01 0.00 0.00 0.00 0.00 0.00 0.00 0.00 0.00 0.00 0.00 0.00 0.00 0.00 0.00 0.01 0.02 0.03 0.06 0.07 0.04 0.06 0.10
0.00 0.00 0.00 0.00 0.00 0.00 0.00 0.00 0.00 0.00 0.00 0.00 0.00 0.00 0.00 0.01 0.02 0.02 0.02 0.03 0.06 0.03 0.00 0.01 0.00 0.00 0.00 0.00 0.00 0.00 0.00 0.00 0.00 0.00 0.00 0.01 0.02 0.03 0.03 0.04 0.08 0.08 0.09
0.00 0.00 0.00 0.00 0.00 0.00 0.00 0.00 0.00 0.00 0.00 0.00 0.00 0.01 0.01 0.02 0.02 0.03 0.04 0.05 0.06 0.07 0.05 0.04 0.03 0.02 0.00 0.00 0.00 0.00 0.01 0.00 0.01 0.01 0.01 0.02 0.03 0.04 0.04 0.04 0.05 0.22 0.34
0.00 0.00 0.00 0.00 0.00 0.00 0.00 0.00 0.00 0.00 0.00 0.00 0.01 0.02 0.04 0.05 0.05 0.06 0.07 0.09 0.10 0.10 0.10 0.06 0.06 0.03 0.01 0.00 0.00 0.02 0.02 0.00 0.00 0.01 0.01 0.02 0.04 0.08 0.09 0.09 0.09 0.16 0.75
0.00 0.00 0.00 0.00 0.00 0.00 0.00 0.00 0.00 0.00 0.00 0.00 0.00 0.01 0.01 0.01 0.03 0.05 0.07 0.10 0.11 0.10 0.12 0.10 0.06 0.03 0.01 0.01 0.01 0.03 0.04 0.00 0.00 0.01 0.01 0.02 0.04 0.07 0.08 0.09 0.09 0.09 0.14
0.00 0.00 0.00 0.00 0.00 0.00 0.00 0.00 0.00 0.00 0.00 0.00 0.00 0.00 0.00 0.00 0.00 0.00 0.00 0.01 0.01 0.00 0.01 0.01 0.01 0.01 0.01 0.01 0.01 0.01 0.02 0.00 0.00 0.00 0.00 0.01 0.02 0.03 0.06 0.08 0.12 0.16 0.14
0.00 0.00 0.00 0.00 0.00 0.00 0.00 0.00 0.00 0.00 0.00 0.00 0.00 0.00 0.00 0.00 0.00 0.00 0.00 0.00 0.00 0.00 0.00 0.00 0.00 0.00 0.00 0.00 0.00 0.00 0.01 0.01 0.01 0.01 0.00 0.00 0.01 0.02 0.02 0.03 0.04 0.07 0.12
0.00 0.00 0.00 0.00 0.00 0.00 0.00 0.00 0.00 0.00 0.00 0.00 0.00 0.00 0.00 0.00 0.00 0.00 0.00 0.01 0.00 0.00 0.00 0.00 0.00 0.00 0.00 0.00 0.00 0.00 0.00 0.00 0.00 0.00 0.00 0.00 0.00 0.00 0.01 0.01 0.01 0.03 0.04
0.00 0.00 0.00 0.00 0.00 0.00 0.00 0.00 0.00 0.00 0.00 0.00 0.00 0.00 0.00 0.00 0.00 0.00 0.00 0.00 0.00 0.00 0.00 0.00 0.00 0.00 0.00 0.00 0.00 0.00 0.00 0.00 0.00 0.00 0.00 0.00 0.00 0.00 0.00 0.00 0.00 0.00 0.00
0.00 0.00 0.00 0.00 0.00 0.00 0.00 0.00 0.00 0.00 0.00 0.00 0.00 0.00 0.00 0.00 0.00 0.00 0.00 0.00 0.00 0.00 0.00 0.00 0.00 0.02 0.01 0.01 0.00 0.00 0.00 0.00 0.01 0.01 0.00 0.00 0.00 0.00 0.00 0.00 0.00 0.00 0.00
0.00 0.00 0.00 0.00 0.00 0.00 0.00 0.00 0.00 0.00 0.00 0.00 0.00 0.00 0.00 0.00 0.00 0.00 0.00 0.00 0.00 0.00 0.00 0.00 0.00 0.01 0.01 0.00 0.00 0.00 0.00 0.00 0.01 0.01 0.00 0.00 0.00 0.00 0.00 0.00 0.00 0.00 0.00
0.00 0.00 0.00 0.00 0.00 0.00 0.00 0.00 0.00 0.00 0.00 0.00 0.01 0.00 0.00 0.00 0.00 0.00 0.00 0.00 0.00 0.00 0.00 0.00 0.00 0.00 0.00 0.00 0.00 0.00 0.00 0.00 0.00 0.00 0.00 0.01 0.00 0.00 0.00 0.00 0.00 0.00 0.00
0.00 0.00 0.00 0.00 0.00 0.00 0.00 0.00 0.00 0.00 0.00 0.00 0.00 0.00 0.00 0.00 0.00 0.00 0.00 0.00 0.00 0.00 0.00 0.00 0.00 0.00 0.00 0.00 0.00 0.00 0.00 0.00 0.00 0.00 0.00 0.00 0.00 0.00 0.00 0.00 0.00 0.00 0.00